Location: Zlin
(49.2330°N, 17.6670°E)
Time: 02:15:07
(UTC+02:00)

ISS - Visible Passes

Search period start: 25 July 2016 00:00
Search period end: 04 August 2016 00:00
Orbit: 401 x 404 km, 51.6° (Epoch: 24 July)

Date Brightness Start Highest point End Pass type
(mag) Time Alt. Az. Time Alt. Az. Time Alt. Az.
25 Jul -2.8 00:46:52 54° NE 00:46:52 54° NE 00:49:32 10° ENE visible
25 Jul -2.7 02:19:43 10° WNW 02:22:57 56° N 02:26:10 10° E visible
25 Jul -3.4 03:56:13 10° WNW 03:59:27 61° SSW 04:02:40 10° SE visible
25 Jul -1.5 23:55:16 22° ENE 23:55:16 22° ENE 23:56:37 10° ENE visible
26 Jul -2.6 01:27:50 19° WNW 01:29:57 53° N 01:33:09 10° ENE visible
26 Jul -3.4 03:03:16 10° WNW 03:06:32 89° WSW 03:09:49 10° ESE visible
26 Jul -1.4 21:23:00 10° SSE 21:24:32 13° SE 21:26:04 10° ESE visible
26 Jul -3.4 22:57:13 10° SW 23:00:26 60° SSE 23:03:39 10° ENE visible
27 Jul -2.7 00:33:42 10° W 00:36:56 56° N 00:40:09 10° ENE visible
27 Jul -3.1 02:10:20 10° WNW 02:13:36 69° NNE 02:16:51 10° E visible
27 Jul -2.7 03:46:54 10° W 03:49:54 34° SSW 03:52:53 10° SE visible
27 Jul -2.9 22:04:33 10° SW 22:07:35 38° SSE 22:10:39 10° E visible
27 Jul -3.0 23:40:41 10° W 23:43:56 66° NNW 23:47:11 10° ENE visible
28 Jul -2.8 01:17:22 10° WNW 01:20:36 57° N 01:23:49 10° E visible
28 Jul -3.3 02:55:15 22° W 02:57:04 54° SSW 03:00:15 10° SE visible
28 Jul -1.3 04:31:49 10° WSW 04:32:55 11° SW 04:34:02 10° SSW visible
28 Jul -2.2 21:12:07 10° SSW 21:14:48 24° SE 21:17:30 10° E visible
28 Jul -3.4 22:47:42 10° WSW 22:50:58 85° NNW 22:54:14 10° ENE visible
29 Jul -2.6 00:24:23 10° WNW 00:27:36 53° N 00:27:59 49° NNE visible
29 Jul -3.4 21:54:48 10° WSW 21:58:02 67° SSE 22:01:17 10° ENE visible
29 Jul -2.6 23:31:21 10° W 23:34:34 54° N 23:36:28 22° ENE visible
30 Jul -1.1 01:07:57 10° WNW 01:09:03 19° WNW 01:09:03 19° WNW visible
30 Jul -3.0 21:02:03 10° SW 21:05:09 43° SSE 21:08:17 10° ENE visible
30 Jul -2.9 22:38:19 10° W 22:41:34 62° N 22:44:48 10° ENE visible
31 Jul -2.5 00:15:00 10° WNW 00:17:41 50° NW 00:17:41 50° NW visible
31 Jul -3.2 21:45:18 10° WSW 21:48:34 79° NNW 21:51:50 10° ENE visible
31 Jul -2.6 23:21:59 10° WNW 23:25:12 54° N 23:26:21 33° ENE visible
01 Aug -0.6 00:58:30 10° WNW 00:58:55 13° WNW 00:58:55 13° WNW visible
01 Aug -2.6 22:28:58 10° W 22:32:11 53° N 22:35:03 12° ENE visible
02 Aug -2.1 00:05:32 10° WNW 00:07:38 36° WNW 00:07:38 36° WNW visible
02 Aug -2.8 21:35:55 10° W 21:39:09 59° N 21:42:23 10° ENE visible
02 Aug -3.0 23:12:35 10° WNW 23:15:50 63° NNE 23:16:21 52° ENE visible
03 Aug -2.7 22:19:35 10° WNW 22:22:48 55° N 22:25:04 17° E visible
